sat.trackr.live / text

‹ back to catalog

STARLINK-2751

NORAD 48685 · 2021-044AZ

PAYLOAD ACTIVE UNKNOWN

§ Identity

Operator
Country
US
Launch date
2021-05-26
Launch site
AFETR
Launch vehicle
Mass (kg)
RCS (m²)

Purposes: comms

External: N2YO · Heavens-Above · Gunter

§ Orbital elements

Epoch: 2026-05-25T04:43:29.725248Z

Period
94.01 min
Inclination
53.1615°
Eccentricity
0.0001246
Mean motion
15.31713817 rev/d
Perigee alt
469.8 km
Apogee alt
471.6 km
Semi-major
6,848.8 km
B*
6.8513e-5
RAAN
69.0761°
Arg perigee
87.8553°
Mean anomaly
272.2591°
Rev number
27,623

§ Raw data

STARLINK-27511 48685U 21044AZ  26145.19687182  .00001762  00000+0  68513-4 0  99942 48685  53.1615  69.0761 0001246  87.8553 272.2591 15.31713817276237

JSON: /api/v1/satellites/48685 · /tle

For live sub-satellite position, see the globe view (requires WebGL).

§ Visibility from observer

Set your observer location to see the next 7 days of passes ≥ 10°. The values pass through the URL so the page stays shareable.

No JS? Fill the form by hand. The geolocation button needs JavaScript.